This is the latest recevied weather packets stored in our database for station/object KA3ZXO. If no packets are shown the sender has not sent any weather packets the latest 10 day(s).
| Time | Temp. | Humidity | Pressure | Rain* | Wind** | Luminosity | Snow |
|---|---|---|---|---|---|---|---|
| 1777517683 | 12.78° C | 92% | 1007.3 hPa | 0 mm | - | 0 W/m² | - |
| 1777517079 | 12.78° C | 92% | 1007.3 hPa | 0 mm | - | 0 W/m² | - |
| 1777516477 | 12.78° C | 91% | 1007.4 hPa | 0 mm | - | 0 W/m² | - |
| 1777515877 | 12.78° C | 91% | 1007.6 hPa | 0 mm | - | 0 W/m² | - |
| 1777515276 | 12.78° C | 90% | 1007.8 hPa | 0 mm | - | 0 W/m² | - |
| 1777514674 | 12.78° C | 90% | 1008.1 hPa | 0 mm | - | 0 W/m² | - |
| 1777514074 | 12.78° C | 90% | 1008.2 hPa | 0 mm | - | 0 W/m² | - |
| 1777513474 | 12.78° C | 90% | 1008.2 hPa | 0 mm | - | 0 W/m² | - |
| 1777512872 | 12.78° C | 90% | 1008.4 hPa | 0 mm | - | 0 W/m² | - |
| 1777512271 | 12.78° C | 90% | 1008.3 hPa | 0 mm | - | 0 W/m² | - |
| 1777511666 | 12.78° C | 90% | 1008.2 hPa | 0 mm | - | 0 W/m² | - |
| 1777511066 | 12.78° C | 90% | 1008.1 hPa | 0 mm | - | 0 W/m² | - |
| 1777510465 | 12.78° C | 90% | 1007.9 hPa | 0 mm | - | 0 W/m² | - |
| 1777509864 | 12.78° C | 91% | 1007.8 hPa | 0 mm | - | 0 W/m² | - |
| 1777509262 | 12.78° C | 91% | 1008.1 hPa | 0 mm | - | 0 W/m² | - |
| 1777508662 | 12.78° C | 92% | 1007.8 hPa | 0 mm | - | 0 W/m² | - |
| 1777508062 | 12.78° C | 91% | 1007.9 hPa | 1.78 mm | - | 0 W/m² | - |
| 1777507461 | 12.78° C | 91% | 1007.9 hPa | 0 mm | - | 0 W/m² | - |
| 1777506862 | 13.33° C | 88% | 1008.1 hPa | 0 mm | - | 1 W/m² | - |
| 1777506260 | 13.89° C | 83% | 1008 hPa | 0 mm | - | 2 W/m² | - |
| 1777505658 | 14.44° C | 80% | 1008.3 hPa | 0 mm | - | 1 W/m² | - |
| 1777505058 | 14.44° C | 80% | 1008.3 hPa | 0 mm | - | 2 W/m² | - |
| 1777504458 | 14.44° C | 81% | 1008.3 hPa | 0 mm | - | 4 W/m² | - |
| 1777503855 | 14.44° C | 80% | 1008.2 hPa | 0 mm | - | 8 W/m² | - |
| 1777503254 | 15° C | 74% | 1008.2 hPa | 0 mm | - | 9 W/m² | - |
* Rain latest hour (hover to see other rain measurements)
** Current wind speed in m/s (hover to see current wind gust speed)